LIPS 3

operational
NORAD ID: 17998 Int'l Des: 1987-043 Owner: NRL Country: US
LEO

关于 LIPS 3

正在加载描述...

实时位置

正在加载3D地球...

即将过境

高度历史

Altitude vs Time

uPlot chart will show altitude changes over time

两行轨道根数

1 17998U 87043B 26062.62189512 .00000978 00000-0 33467-3 0 9996
2 17998 63.3182 149.5255 0708181 116.0140 251.5559 13.51094762336998
Epoch: Mar 3, 2026 • Age: 35 hours

当前状态

高度 553.0 km
速度 7.85 km/s
星下点 46.92°N, 32.81°W
发射日期 May 15, 1987
运行时间 38.8 years
类型 other

技术详情

分类 Payload
质量 63.00 kg
干质量 63.00 kg
总质量 63.00 kg
长度 0.10 m
直径 1.80 m
跨度 1.80 m
形状 Disk
制造商 NRL
平台类型 MSD-PS
阶段状态 In Orbit
所有者/国家 NRL/US

大型星座

Loading constellations...